Grayling, MI

2:54 AM EDT on June 26, 2017 (GMT -0400)
Grayling

Weather History for KGOV - October, 2012

Change the Weather History Date:

Wednesday, October 10, 2012

  Actual Average (KHTL) Record (KHTL)
Temperature  
Mean Temperature 40 °F -  
Max Temperature 44 °F 55 °F 86 °F (1938)
Min Temperature 36 °F 37 °F 20 °F (1925)
Degree Days  
Heating Degree Days 25    
Moisture  
Dew Point 37 °F    
Average Humidity 90    
Maximum Humidity 100    
Minimum Humidity 67    
Precipitation  
Precipitation 0.00 in - - ()
Sea Level Pressure  
Sea Level Pressure 29.86 in    
Wind  
Wind Speed 7 mph (West)    
Max Wind Speed 17 mph    
Max Gust Speed 29 mph    
Visibility 9 miles    
Events Rain    
Averages and records for this station are not official NWS values.
T = Trace of Precipitation, MM = Missing Value Source: NWS Daily Summary

Daily Weather History Graph

Daily Weather History Graph

Search for Another Location

Airport or City:

Trip Planner

Search our weather history database for the weather conditions in past years. The results will help you decide how hot, cold, wet, or windy it might be!

Date:

Astronomy

Oct. 10, 2012 Rise Set
Actual Time 7:48 AM EDT 7:02 PM EDT
Civil Twilight 7:19 AM EDT 7:31 PM EDT
Nautical Twilight 6:45 AM EDT 8:05 PM EDT
Astronomical Twilight 6:11 AM EDT 8:39 PM EDT
Moon 2:11 AM EDT (10/10) 4:15 PM EDT (10/10)
Length of Visible Light 12h 12m
Length of Day
11h 13m
Waning Crescent, 27% of the Moon is Illuminated
Oct 10
Waning Crescent
Oct 15
New
Oct 21
First Quarter
Oct 29
Full
Nov 6
Last Quarter

Hourly Weather History & Observations

Time (EDT) Temp. Windchill Dew Point Humidity Pressure Visibility Wind Dir Wind Speed Gust Speed Precip Events Conditions
12:13 AM 41.0 °F 37.1 °F 40.5 °F 98% 29.77 in 10.0 mi West 5.8 mph - N/A Rain Light Rain
12:33 AM 41.0 °F 37.1 °F 40.5 °F 98% 29.77 in 10.0 mi West 5.8 mph - N/A Rain Rain
12:53 AM 41.0 °F 39.0 °F 40.5 °F 98% 29.77 in 10.0 mi West 3.5 mph - N/A   Drizzle
1:13 AM 40.1 °F 36.9 °F 39.9 °F 99% 29.77 in 10.0 mi West 4.6 mph - N/A Rain Light Rain
1:33 AM 39.6 °F 37.4 °F 39.4 °F 99% 29.76 in 10.0 mi West 3.5 mph - N/A Rain Rain
1:53 AM 39.6 °F 35.4 °F 39.4 °F 99% 29.76 in 10.0 mi WSW 5.8 mph - N/A Rain Light Rain
2:14 AM 39.6 °F 34.7 °F 39.4 °F 99% 29.76 in 10.0 mi WSW 6.9 mph - N/A   Drizzle
2:34 AM 39.6 °F 36.3 °F 39.6 °F 100% 29.75 in 10.0 mi SW 4.6 mph - N/A Rain Rain
2:54 AM 39.6 °F 36.3 °F 39.6 °F 100% 29.75 in 10.0 mi SW 4.6 mph - N/A   Overcast
3:14 AM 39.6 °F 37.4 °F 39.6 °F 100% 29.75 in 10.0 mi SW 3.5 mph - N/A   Overcast
3:34 AM 39.6 °F 36.3 °F 39.6 °F 100% 29.74 in 10.0 mi SW 4.6 mph - N/A   Overcast
3:54 AM 39.6 °F 35.4 °F 39.6 °F 100% 29.74 in 10.0 mi SW 5.8 mph - N/A   Overcast
4:14 AM 39.6 °F 35.4 °F 39.6 °F 100% 29.74 in 10.0 mi SW 5.8 mph - N/A   Overcast
4:34 AM 39.6 °F 34.7 °F 39.6 °F 100% 29.74 in 10.0 mi WSW 6.9 mph - N/A   Overcast
4:54 AM 39.6 °F 35.4 °F 39.6 °F 100% 29.74 in 10.0 mi WSW 5.8 mph - N/A   Overcast
5:14 AM 39.6 °F 35.4 °F 39.6 °F 100% 29.74 in 10.0 mi WSW 5.8 mph - N/A   Overcast
5:35 AM 39.6 °F 34.7 °F 39.6 °F 100% 29.75 in 10.0 mi WSW 6.9 mph - N/A   Overcast
5:55 AM 39.6 °F 33.5 °F 39.6 °F 100% 29.75 in 10.0 mi WSW 9.2 mph - N/A   Overcast
6:15 AM 39.6 °F 33.5 °F 39.6 °F 100% 29.75 in 10.0 mi WSW 9.2 mph - N/A   Scattered Clouds
6:30 AM 39.6 °F 35.4 °F 39.6 °F 100% 29.75 in 10.0 mi WSW 5.8 mph - N/A   Clear
6:50 AM 39.6 °F 34.7 °F 39.6 °F 100% 29.76 in 10.0 mi WSW 6.9 mph - N/A   Scattered Clouds
7:10 AM 39.6 °F 34.7 °F 39.6 °F 100% 29.76 in 10.0 mi WSW 6.9 mph - N/A   Mostly Cloudy
7:30 AM 39.6 °F 35.4 °F 39.6 °F 100% 29.77 in 10.0 mi WSW 5.8 mph - N/A   Overcast
7:50 AM 39.6 °F 33.5 °F 39.6 °F 100% 29.78 in 5.0 mi West 9.2 mph - N/A   Heavy Drizzle
8:11 AM 39.6 °F 33.0 °F 39.6 °F 100% 29.79 in 4.0 mi WSW 10.4 mph - N/A Rain Light Rain
8:31 AM 39.6 °F 35.4 °F 38.8 °F 97% 29.79 in 10.0 mi WSW 5.8 mph - N/A   Overcast
8:51 AM 39.6 °F 36.3 °F 39.2 °F 99% 29.80 in 10.0 mi WSW 4.6 mph - N/A   Mostly Cloudy
9:31 AM 39.6 °F 33.0 °F 39.0 °F 98% 29.81 in 5.0 mi WNW 10.4 mph 23.0 mph N/A Rain Light Rain
9:51 AM 40.8 °F 35.6 °F 39.6 °F 95% 29.81 in 10.0 mi West 8.1 mph - N/A   Mostly Cloudy
10:11 AM 39.7 °F 32.7 °F 37.0 °F 90% 29.82 in 10.0 mi NW 11.5 mph 23.0 mph N/A Rain Light Rain
10:31 AM 41.2 °F 33.4 °F 37.9 °F 88% 29.82 in 7.0 mi WNW 15.0 mph 23.0 mph N/A   Drizzle
10:52 AM 38.1 °F 30.2 °F 36.9 °F 95% 29.83 in 3.0 mi WNW 12.7 mph 19.6 mph N/A Rain Light Rain
11:12 AM 41.2 °F 33.4 °F 38.7 °F 91% 29.83 in 5.0 mi WNW 15.0 mph 20.7 mph N/A Rain Light Rain
11:31 AM 39.6 °F 32.1 °F 38.5 °F 96% 29.84 in 4.0 mi WNW 12.7 mph 17.3 mph N/A Rain Light Rain
11:52 AM 41.0 °F 35.2 °F 39.7 °F 95% 29.84 in 10.0 mi West 9.2 mph - N/A   Scattered Clouds
12:12 PM 41.4 °F 34.3 °F 38.1 °F 88% 29.85 in 3.0 mi WNW 12.7 mph - N/A Rain Rain
12:52 PM 43.3 °F 36.1 °F 39.7 °F 87% 29.86 in 10.0 mi WNW 15.0 mph 23.0 mph N/A   Mostly Cloudy
1:12 PM 39.6 °F 31.7 °F 37.9 °F 94% 29.87 in 4.0 mi NW 13.8 mph 20.7 mph N/A Rain Light Rain
1:33 PM 42.3 °F 36.3 °F 39.9 °F 91% 29.87 in 10.0 mi West 10.4 mph - N/A   Overcast
1:53 PM 40.6 °F 33.0 °F 38.5 °F 92% 29.87 in 10.0 mi WNW 13.8 mph 19.6 mph N/A Rain Light Rain
2:13 PM 39.9 °F 34.5 °F 38.5 °F 95% 29.87 in 5.0 mi WNW 8.1 mph 16.1 mph N/A Rain Light Rain
2:33 PM 41.0 °F 34.3 °F 38.3 °F 90% 29.87 in 10.0 mi WNW 11.5 mph 16.1 mph N/A   Overcast
2:53 PM 42.6 °F 35.6 °F 38.7 °F 86% 29.88 in 10.0 mi WNW 13.8 mph 25.3 mph N/A   Mostly Cloudy
3:13 PM 43.9 °F 37.2 °F 35.4 °F 72% 29.88 in 10.0 mi WNW 13.8 mph 23.0 mph N/A   Mostly Cloudy
3:33 PM 42.3 °F 36.8 °F 34.5 °F 74% 29.89 in 10.0 mi WNW 9.2 mph - N/A   Overcast
3:53 PM 42.4 °F 35.0 °F 32.5 °F 68% 29.90 in 10.0 mi West 15.0 mph 28.8 mph N/A   Mostly Cloudy
4:14 PM 44.6 °F 37.2 °F 34.3 °F 67% 29.90 in 10.0 mi West 17.3 mph 26.5 mph N/A   Mostly Cloudy
4:34 PM 43.0 °F 35.7 °F 32.5 °F 67% 29.92 in 10.0 mi West 15.0 mph 21.9 mph N/A   Mostly Cloudy
4:54 PM 39.6 °F 34.0 °F 33.8 °F 80% 29.93 in 7.0 mi WSW 8.1 mph 24.2 mph N/A   Unknown
5:14 PM 39.6 °F 32.1 °F 34.9 °F 83% 29.93 in 10.0 mi WSW 12.7 mph 19.6 mph N/A   Scattered Clouds
5:34 PM 40.1 °F 34.1 °F 34.2 °F 79% 29.94 in 10.0 mi West 9.2 mph 17.3 mph N/A   Mostly Cloudy
5:54 PM 39.9 °F 33.4 °F 33.6 °F 78% 29.95 in 10.0 mi West 10.4 mph 20.7 mph N/A   Overcast
6:14 PM 39.6 °F 32.1 °F 32.9 °F 77% 29.96 in 10.0 mi West 12.7 mph 17.3 mph N/A   Overcast
6:34 PM 39.6 °F 33.5 °F 33.1 °F 78% 29.96 in 10.0 mi West 9.2 mph 17.3 mph N/A   Overcast
6:54 PM 39.6 °F 31.7 °F 33.4 °F 79% 29.98 in 5.0 mi West 13.8 mph 21.9 mph N/A   Heavy Drizzle
7:15 PM 37.8 °F 31.3 °F 35.1 °F 90% 29.99 in 10.0 mi West 9.2 mph 17.3 mph N/A Rain Light Rain
7:35 PM 37.4 °F 33.8 °F 34.9 °F 91% 29.99 in 10.0 mi West 4.6 mph - N/A   Overcast
8:10 PM 37.0 °F 33.3 °F 34.3 °F 90% 30.00 in 10.0 mi West 4.6 mph - N/A   Mostly Cloudy
8:30 PM 37.0 °F 32.4 °F 34.2 °F 89% 30.01 in 10.0 mi West 5.8 mph - N/A   Mostly Cloudy
8:50 PM 37.0 °F 31.6 °F 33.4 °F 87% 30.02 in 10.0 mi WNW 6.9 mph - N/A   Overcast
9:10 PM 37.0 °F 33.3 °F 33.3 °F 86% 30.03 in 10.0 mi West 4.6 mph - N/A   Overcast
9:30 PM 37.0 °F 34.5 °F 32.4 °F 83% 30.03 in 10.0 mi West 3.5 mph - N/A   Overcast
9:50 PM 37.0 °F 33.3 °F 32.0 °F 82% 30.04 in 10.0 mi West 4.6 mph - N/A   Mostly Cloudy
10:11 PM 37.0 °F 33.3 °F 31.8 °F 81% 30.04 in 10.0 mi WNW 4.6 mph - N/A   Overcast
10:31 PM 37.0 °F - 31.6 °F 81% 30.04 in 10.0 mi Calm Calm - N/A   Overcast
10:51 PM 37.0 °F 34.5 °F 31.3 °F 80% 30.05 in 10.0 mi West 3.5 mph - N/A   Mostly Cloudy
11:11 PM 37.0 °F 34.5 °F 31.1 °F 79% 30.05 in 10.0 mi WSW 3.5 mph - N/A   Mostly Cloudy
11:31 PM 36.0 °F 32.1 °F 30.2 °F 80% 30.05 in 10.0 mi WSW 4.6 mph - N/A   Scattered Clouds
11:51 PM 36.0 °F 32.1 °F 30.4 °F 80% 30.06 in 10.0 mi WSW 4.6 mph - N/A   Scattered Clouds